ACA269 CYYZ-CYWG

Flight info

Callsign ACA269
Flight time 2h 10m
Altitude 34000
Route AVSEP7 MUSIT DCT SSM DCT YQT DCT GOVIT NORAK6
Aircraft A321/M-SDE3FGHIRWY/LB1

Departure

Time 2026-05-06 23:45
Airport Toronto Pearson International Airport (CYYZ)

Arrival

Time 2026-05-07 01:55
Airport Winnipeg / James Armstrong Richardson International Airport (CYWG)
Time Latitude Longitude Altitude Speed Heading
2026-05-06 22:53 43.68007 -79.61470 569 ft 0 kts 317°
2026-05-06 22:53 43.68007 -79.61471 569 ft 0 kts 317°
2026-05-06 23:36 43.68001 -79.61462 569 ft 4 kts 317°
2026-05-06 23:36 43.67982 -79.61438 564 ft 2 kts 316°
2026-05-06 23:37 43.67967 -79.61415 571 ft 4 kts 298°
2026-05-06 23:37 43.67958 -79.61381 569 ft 3 kts 285°
2026-05-06 23:37 43.67956 -79.61375 568 ft 0 kts 286°
2026-05-06 23:40 43.67951 -79.61390 568 ft 7 kts 240°
2026-05-06 23:40 43.67941 -79.61401 566 ft 0 kts 213°
2026-05-06 23:40 43.67932 -79.61406 567 ft 5 kts 201°
2026-05-06 23:40 43.67891 -79.61440 569 ft 10 kts 221°
2026-05-06 23:41 43.67826 -79.61536 563 ft 14 kts 226°
2026-05-06 23:41 43.67761 -79.61629 561 ft 13 kts 224°
2026-05-06 23:41 43.67664 -79.61650 567 ft 14 kts 197°
2026-05-06 23:41 43.67589 -79.61725 566 ft 13 kts 221°
2026-05-06 23:42 43.67515 -79.61708 567 ft 16 kts 142°
2026-05-06 23:42 43.67379 -79.61530 565 ft 31 kts 136°
2026-05-06 23:42 43.67255 -79.61371 566 ft 15 kts 135°
2026-05-06 23:42 43.67161 -79.61390 569 ft 21 kts 221°
2026-05-06 23:43 43.67022 -79.61564 570 ft 33 kts 222°
2026-05-06 23:43 43.66840 -79.61793 569 ft 35 kts 222°
2026-05-06 23:43 43.66667 -79.62012 571 ft 33 kts 222°
2026-05-06 23:43 43.66503 -79.62218 564 ft 31 kts 222°
2026-05-06 23:44 43.66370 -79.62382 566 ft 20 kts 221°
2026-05-06 23:44 43.66253 -79.62398 561 ft 21 kts 137°
2026-05-06 23:44 43.66178 -79.62260 564 ft 17 kts 84°
2026-05-06 23:44 43.66295 -79.62062 568 ft 39 kts 47°
2026-05-06 23:45 43.66641 -79.61562 569 ft 104 kts 46°
2026-05-06 23:45 43.67267 -79.60665 569 ft 153 kts 43°
2026-05-06 23:45 43.68018 -79.59559 1020 ft 160 kts 44°
2026-05-06 23:45 43.68781 -79.58389 1540 ft 171 kts 47°
2026-05-06 23:46 43.69545 -79.57059 2004 ft 180 kts 46°
2026-05-06 23:46 43.70379 -79.55778 2538 ft 178 kts 34°
2026-05-06 23:46 43.71499 -79.55173 3037 ft 173 kts 358°
2026-05-06 23:46 43.72628 -79.55774 3265 ft 187 kts 318°
2026-05-06 23:47 43.73620 -79.57046 3411 ft 208 kts 316°
2026-05-06 23:47 43.74794 -79.58390 3655 ft 227 kts 323°
2026-05-06 23:47 43.76127 -79.59623 4240 ft 233 kts 325°
2026-05-06 23:47 43.77551 -79.60864 4773 ft 247 kts 325°
2026-05-06 23:48 43.79025 -79.62138 5540 ft 252 kts 325°
2026-05-06 23:48 43.80521 -79.63439 6357 ft 255 kts 324°
2026-05-06 23:48 43.81874 -79.65007 7090 ft 254 kts 306°
2026-05-06 23:48 43.82727 -79.67129 7860 ft 252 kts 285°
2026-05-06 23:49 43.82971 -79.69517 8674 ft 252 kts 267°
2026-05-06 23:49 43.82669 -79.71909 9461 ft 253 kts 258°
2026-05-06 23:49 43.82277 -79.74287 10225 ft 255 kts 258°
2026-05-06 23:49 43.81864 -79.76782 10412 ft 277 kts 258°
2026-05-06 23:50 43.81420 -79.79486 10543 ft 299 kts 258°
2026-05-06 23:50 43.80910 -79.85388 11505 ft 316 kts 275°
2026-05-06 23:50 43.81409 -79.88361 12206 ft 321 kts 288°
2026-05-06 23:51 43.82455 -79.91119 12915 ft 328 kts 301°
2026-05-06 23:51 43.83851 -79.93649 13616 ft 331 kts 302°
2026-05-06 23:51 43.85264 -79.96182 14231 ft 334 kts 302°
2026-05-06 23:51 43.86689 -79.98742 14821 ft 336 kts 302°
2026-05-06 23:52 43.88122 -80.01324 15390 ft 339 kts 301°
2026-05-06 23:52 43.89562 -80.03932 15957 ft 342 kts 301°
2026-05-06 23:52 43.91010 -80.06562 16519 ft 345 kts 301°
2026-05-06 23:52 43.92455 -80.09182 17071 ft 348 kts 301°
2026-05-06 23:53 43.93931 -80.11857 17623 ft 350 kts 301°
2026-05-06 23:53 43.95411 -80.14565 18163 ft 353 kts 300°
2026-05-06 23:53 43.96893 -80.17299 18637 ft 356 kts 300°
2026-05-06 23:53 43.98382 -80.20059 19098 ft 358 kts 299°
2026-05-06 23:54 43.99880 -80.22837 19547 ft 361 kts 299°
2026-05-06 23:54 44.01389 -80.25630 20040 ft 363 kts 298°
2026-05-06 23:54 44.02910 -80.28446 20511 ft 365 kts 298°
2026-05-06 23:54 44.04435 -80.31272 20961 ft 367 kts 298°
2026-05-06 23:55 44.05971 -80.34123 21419 ft 369 kts 298°
2026-05-06 23:55 44.07517 -80.36989 21858 ft 372 kts 298°
2026-05-06 23:55 44.09075 -80.39883 22306 ft 375 kts 298°
2026-05-06 23:55 44.10638 -80.42792 22715 ft 377 kts 298°
2026-05-06 23:56 44.12215 -80.45731 23139 ft 380 kts 298°
2026-05-06 23:56 44.13817 -80.48678 23559 ft 385 kts 301°
2026-05-06 23:56 44.15644 -80.51457 23901 ft 391 kts 304°
2026-05-06 23:56 44.17514 -80.54229 24292 ft 393 kts 303°
2026-05-06 23:57 44.19389 -80.57009 24650 ft 395 kts 304°
2026-05-06 23:57 44.21269 -80.59804 25015 ft 396 kts 304°
2026-05-06 23:57 44.23149 -80.62608 25414 ft 397 kts 303°
2026-05-06 23:57 44.25041 -80.65434 25792 ft 398 kts 303°
2026-05-06 23:58 44.26932 -80.68259 26167 ft 399 kts 303°
2026-05-06 23:58 44.28804 -80.71061 26517 ft 400 kts 303°
2026-05-06 23:58 44.30705 -80.73906 26884 ft 402 kts 303°
2026-05-06 23:58 44.32615 -80.76764 27236 ft 403 kts 303°
2026-05-06 23:59 44.34532 -80.79633 27579 ft 404 kts 304°
2026-05-06 23:59 44.36455 -80.82506 27908 ft 405 kts 304°
2026-05-06 23:59 44.38380 -80.85392 28228 ft 407 kts 304°
2026-05-06 23:59 44.40310 -80.88293 28548 ft 408 kts 304°
2026-05-07 00:00 44.42242 -80.91208 28924 ft 409 kts 303°
2026-05-07 00:00 44.44174 -80.94123 29330 ft 408 kts 303°
2026-05-07 00:00 44.46105 -80.97038 29662 ft 409 kts 303°
2026-05-07 00:00 44.47384 -80.98968 29920 ft 408 kts 303°
2026-05-07 00:01 44.49957 -81.02852 30421 ft 406 kts 303°
2026-05-07 00:01 44.51877 -81.05751 30723 ft 405 kts 303°
2026-05-07 00:01 44.53792 -81.08646 31026 ft 405 kts 303°
2026-05-07 00:01 44.55707 -81.11549 31313 ft 405 kts 303°
2026-05-07 00:02 44.57615 -81.14450 31621 ft 405 kts 303°
2026-05-07 00:02 44.59524 -81.17358 31920 ft 405 kts 303°
2026-05-07 00:02 44.61432 -81.20264 32212 ft 405 kts 303°
2026-05-07 00:02 44.63340 -81.23174 32514 ft 405 kts 303°
2026-05-07 00:03 44.65247 -81.26085 32786 ft 405 kts 303°
2026-05-07 00:03 44.67157 -81.28999 33155 ft 405 kts 303°
2026-05-07 00:03 44.68420 -81.30930 33337 ft 406 kts 303°
2026-05-07 00:03 44.70331 -81.33855 33590 ft 406 kts 303°
2026-05-07 00:04 44.72241 -81.36781 33850 ft 406 kts 303°
2026-05-07 00:04 44.74154 -81.39708 34101 ft 406 kts 303°
2026-05-07 00:04 44.76068 -81.42635 34314 ft 407 kts 303°
2026-05-07 00:04 44.77982 -81.45568 34522 ft 407 kts 303°
2026-05-07 00:05 44.79893 -81.48505 34731 ft 407 kts 303°
2026-05-07 00:05 44.81807 -81.51452 34916 ft 408 kts 303°
2026-05-07 00:05 44.85629 -81.57342 35005 ft 406 kts 303°
2026-05-07 00:06 44.89434 -81.63226 35018 ft 407 kts 303°
2026-05-07 00:06 44.93251 -81.69137 35005 ft 408 kts 303°
2026-05-07 00:07 44.97076 -81.75067 35004 ft 408 kts 303°
2026-05-07 00:07 45.00898 -81.81003 35005 ft 408 kts 303°
2026-05-07 00:08 45.04714 -81.86942 35007 ft 408 kts 303°
2026-05-07 00:08 45.08531 -81.92889 35006 ft 408 kts 303°
2026-05-07 00:09 45.12319 -81.98811 35013 ft 408 kts 303°
2026-05-07 00:09 45.16132 -82.04791 35000 ft 409 kts 303°
2026-05-07 00:10 45.19949 -82.10785 34993 ft 410 kts 303°
2026-05-07 00:10 45.23765 -82.16796 34999 ft 410 kts 303°
2026-05-07 00:11 45.27582 -82.22822 34995 ft 410 kts 303°
2026-05-07 00:11 45.31397 -82.28855 35009 ft 411 kts 304°
2026-05-07 00:12 45.35219 -82.34906 35004 ft 412 kts 304°
2026-05-07 00:12 45.39049 -82.40983 34545 ft 413 kts 304°
2026-05-07 00:13 45.40920 -82.44059 34148 ft 409 kts 302°
2026-05-07 00:13 45.42710 -82.47206 33986 ft 410 kts 301°
2026-05-07 00:13 45.46193 -82.53651 33996 ft 411 kts 300°
2026-05-07 00:14 45.49679 -82.60118 34015 ft 412 kts 301°
2026-05-07 00:14 45.53194 -82.66530 33994 ft 414 kts 301°
2026-05-07 00:15 45.56760 -82.72988 33993 ft 415 kts 301°
2026-05-07 00:15 45.60322 -82.79485 33994 ft 415 kts 301°
2026-05-07 00:16 45.63879 -82.85992 33988 ft 416 kts 301°
2026-05-07 00:16 45.67434 -82.92523 33989 ft 416 kts 301°
2026-05-07 00:17 45.70988 -82.99060 33989 ft 417 kts 301°
2026-05-07 00:17 45.74551 -83.05617 33989 ft 417 kts 301°
2026-05-07 00:18 45.78108 -83.12200 33988 ft 418 kts 301°
2026-05-07 00:18 45.81667 -83.18805 33985 ft 419 kts 301°
2026-05-07 00:19 45.85232 -83.25421 33986 ft 419 kts 301°
2026-05-07 00:19 45.88798 -83.32052 33988 ft 420 kts 302°
2026-05-07 00:20 45.92364 -83.38708 33989 ft 421 kts 302°
2026-05-07 00:20 45.95903 -83.45334 33986 ft 421 kts 302°
2026-05-07 00:21 45.99463 -83.52012 34005 ft 422 kts 302°
2026-05-07 00:21 46.03037 -83.58723 33979 ft 423 kts 302°
2026-05-07 00:22 46.06613 -83.65459 33986 ft 424 kts 302°
2026-05-07 00:22 46.10191 -83.72212 33981 ft 424 kts 302°
2026-05-07 00:23 46.13771 -83.78971 33981 ft 424 kts 302°
2026-05-07 00:23 46.17337 -83.85737 33983 ft 424 kts 302°
2026-05-07 00:24 46.20897 -83.92518 34008 ft 424 kts 302°
2026-05-07 00:24 46.24468 -83.99328 33989 ft 426 kts 302°
2026-05-07 00:25 46.28046 -84.06161 33989 ft 427 kts 302°
2026-05-07 00:25 46.31623 -84.13012 33990 ft 427 kts 302°
2026-05-07 00:26 46.35172 -84.19824 33990 ft 427 kts 302°
2026-05-07 00:26 46.38740 -84.26702 33993 ft 427 kts 302°
2026-05-07 00:27 46.42108 -84.33746 33968 ft 423 kts 296°
2026-05-07 00:27 46.45025 -84.41172 33978 ft 425 kts 296°
2026-05-07 00:28 46.47963 -84.48627 33980 ft 426 kts 296°
2026-05-07 00:28 46.50904 -84.56096 33980 ft 426 kts 296°
2026-05-07 00:29 46.53828 -84.63574 33981 ft 426 kts 296°
2026-05-07 00:30 46.59655 -84.78555 33994 ft 426 kts 296°
2026-05-07 00:30 46.62569 -84.86068 34002 ft 426 kts 296°
2026-05-07 00:31 46.65475 -84.93580 34006 ft 426 kts 296°
2026-05-07 00:31 46.68362 -85.01050 34010 ft 426 kts 296°
2026-05-07 00:32 46.71277 -85.08629 34007 ft 426 kts 296°
2026-05-07 00:32 46.74148 -85.16125 34008 ft 426 kts 296°
2026-05-07 00:33 46.77035 -85.23684 34008 ft 427 kts 296°
2026-05-07 00:33 46.79918 -85.31253 34007 ft 427 kts 296°
2026-05-07 00:34 46.82798 -85.38824 34011 ft 427 kts 296°
2026-05-07 00:34 46.85679 -85.46407 33999 ft 427 kts 296°
2026-05-07 00:35 46.88554 -85.53997 34028 ft 427 kts 296°
2026-05-07 00:35 46.91427 -85.61609 34003 ft 428 kts 296°
2026-05-07 00:36 46.94297 -85.69254 34004 ft 429 kts 296°
2026-05-07 00:36 46.97167 -85.76905 34005 ft 429 kts 296°
2026-05-07 00:37 47.00032 -85.84563 34003 ft 429 kts 296°
2026-05-07 00:37 47.02868 -85.92178 34003 ft 429 kts 296°
2026-05-07 00:38 47.05721 -85.99861 34002 ft 429 kts 296°
2026-05-07 00:38 47.08567 -86.07546 34002 ft 429 kts 296°
2026-05-07 00:39 47.11415 -86.15229 34004 ft 429 kts 295°
2026-05-07 00:39 47.14254 -86.22954 34000 ft 430 kts 296°
2026-05-07 00:40 47.17098 -86.30688 34001 ft 430 kts 296°
2026-05-07 00:40 47.19940 -86.38428 33999 ft 430 kts 296°
2026-05-07 00:41 47.22769 -86.46184 34000 ft 430 kts 296°
2026-05-07 00:41 47.25597 -86.53949 33997 ft 431 kts 296°
2026-05-07 00:42 47.28424 -86.61728 33998 ft 431 kts 296°
2026-05-07 00:42 47.31247 -86.69503 34001 ft 430 kts 296°
2026-05-07 00:43 47.34061 -86.77286 34003 ft 430 kts 296°
2026-05-07 00:43 47.36866 -86.85095 33994 ft 431 kts 296°
2026-05-07 00:44 47.39675 -86.92926 33997 ft 432 kts 296°
2026-05-07 00:44 47.42485 -87.00764 33994 ft 432 kts 296°
2026-05-07 00:45 47.45266 -87.08559 33991 ft 432 kts 296°
2026-05-07 00:45 47.48058 -87.16412 33992 ft 432 kts 296°
2026-05-07 00:46 47.50852 -87.24280 34033 ft 433 kts 296°
2026-05-07 00:46 47.52248 -87.28227 34253 ft 433 kts 296°
2026-05-07 00:46 47.53642 -87.32182 34490 ft 433 kts 296°
2026-05-07 00:47 47.55036 -87.36138 34724 ft 433 kts 296°
2026-05-07 00:47 47.56428 -87.40090 34965 ft 433 kts 296°
2026-05-07 00:47 47.57823 -87.44045 35167 ft 434 kts 296°
2026-05-07 00:47 47.59219 -87.48001 35374 ft 434 kts 296°
2026-05-07 00:48 47.60612 -87.51964 35590 ft 434 kts 296°
2026-05-07 00:48 47.62001 -87.55930 35815 ft 433 kts 296°
2026-05-07 00:48 47.63389 -87.59899 35951 ft 434 kts 296°
2026-05-07 00:48 47.64756 -87.63821 35985 ft 434 kts 295°
2026-05-07 00:49 47.67535 -87.71819 35982 ft 433 kts 295°
2026-05-07 00:49 47.70297 -87.79769 35983 ft 433 kts 295°
2026-05-07 00:50 47.73041 -87.87672 35980 ft 433 kts 295°
2026-05-07 00:50 47.75793 -87.95633 35983 ft 433 kts 295°
2026-05-07 00:51 47.78529 -88.03604 35972 ft 433 kts 295°
2026-05-07 00:51 47.81266 -88.11594 35984 ft 434 kts 295°
2026-05-07 00:52 47.84005 -88.19587 35969 ft 434 kts 295°
2026-05-07 00:52 47.86741 -88.27604 35971 ft 434 kts 295°
2026-05-07 00:53 47.89470 -88.35629 35968 ft 434 kts 295°
2026-05-07 00:53 47.92197 -88.43665 35971 ft 435 kts 295°
2026-05-07 00:54 47.94917 -88.51717 35964 ft 435 kts 295°
2026-05-07 00:54 47.97169 -88.58418 35974 ft 435 kts 295°
2026-05-07 00:55 47.99881 -88.66488 35974 ft 435 kts 295°
2026-05-07 00:55 48.03031 -88.75881 35979 ft 435 kts 295°
2026-05-07 00:56 48.05289 -88.82673 35976 ft 436 kts 295°
2026-05-07 00:56 48.07986 -88.90782 35975 ft 435 kts 295°
2026-05-07 00:57 48.10662 -88.98834 35973 ft 435 kts 295°
2026-05-07 00:57 48.13356 -89.06944 35966 ft 435 kts 295°
2026-05-07 00:58 48.16036 -89.15072 35962 ft 435 kts 295°
2026-05-07 00:58 48.18698 -89.23200 35954 ft 435 kts 295°
2026-05-07 00:59 48.22687 -89.35400 35963 ft 434 kts 295°
2026-05-07 01:00 48.25316 -89.43567 35949 ft 434 kts 291°
2026-05-07 01:00 48.27363 -89.52092 35952 ft 434 kts 289°
2026-05-07 01:01 48.29360 -89.60657 35959 ft 435 kts 289°
2026-05-07 01:01 48.31368 -89.69234 35968 ft 435 kts 289°
2026-05-07 01:02 48.33381 -89.77811 35976 ft 436 kts 289°
2026-05-07 01:02 48.35362 -89.86358 35987 ft 436 kts 288°
2026-05-07 01:03 48.37330 -89.94973 35987 ft 435 kts 288°
2026-05-07 01:03 48.39310 -90.03583 35985 ft 435 kts 289°
2026-05-07 01:04 48.41283 -90.12207 35989 ft 435 kts 289°
2026-05-07 01:04 48.43260 -90.20821 35995 ft 435 kts 289°
2026-05-07 01:05 48.45223 -90.29444 36002 ft 435 kts 288°
2026-05-07 01:05 48.47168 -90.38093 36004 ft 436 kts 288°
2026-05-07 01:06 48.49114 -90.46748 35991 ft 436 kts 288°
2026-05-07 01:06 48.51046 -90.55410 36006 ft 436 kts 288°
2026-05-07 01:07 48.52982 -90.64078 36005 ft 436 kts 288°
2026-05-07 01:07 48.54895 -90.72691 36007 ft 435 kts 288°
2026-05-07 01:08 48.56823 -90.81352 36007 ft 435 kts 288°
2026-05-07 01:08 48.58740 -90.90024 36016 ft 436 kts 288°
2026-05-07 01:09 48.60644 -90.98715 36016 ft 436 kts 288°
2026-05-07 01:09 48.62537 -91.07404 36015 ft 435 kts 288°
2026-05-07 01:10 48.64441 -91.16100 36016 ft 436 kts 288°
2026-05-07 01:10 48.66325 -91.24809 36032 ft 436 kts 288°
2026-05-07 01:11 48.68208 -91.33534 36018 ft 436 kts 288°
2026-05-07 01:11 48.70094 -91.42244 36020 ft 436 kts 288°
2026-05-07 01:12 48.71956 -91.50969 36022 ft 435 kts 288°
2026-05-07 01:12 48.73812 -91.59694 36023 ft 435 kts 288°
2026-05-07 01:13 48.75663 -91.68375 36018 ft 435 kts 288°
2026-05-07 01:13 48.77518 -91.77108 36017 ft 435 kts 288°
2026-05-07 01:14 48.79347 -91.85859 36018 ft 435 kts 288°
2026-05-07 01:14 48.81182 -91.94601 36025 ft 435 kts 288°
2026-05-07 01:15 48.83020 -92.03359 36021 ft 435 kts 288°
2026-05-07 01:15 48.84832 -92.12117 36026 ft 435 kts 288°
2026-05-07 01:16 48.86638 -92.20889 36024 ft 435 kts 288°
2026-05-07 01:16 48.88432 -92.29605 36029 ft 435 kts 288°
2026-05-07 01:17 48.90232 -92.38382 36027 ft 435 kts 288°
2026-05-07 01:17 48.92026 -92.47163 36037 ft 435 kts 288°
2026-05-07 01:18 48.93811 -92.55955 36042 ft 435 kts 288°
2026-05-07 01:18 48.95596 -92.64758 36031 ft 435 kts 288°
2026-05-07 01:19 48.97370 -92.73566 36037 ft 435 kts 288°
2026-05-07 01:19 48.99131 -92.82373 36038 ft 435 kts 288°
2026-05-07 01:20 49.00896 -92.91181 36037 ft 434 kts 287°
2026-05-07 01:20 49.02642 -92.99994 36039 ft 435 kts 287°
2026-05-07 01:21 49.04383 -93.08817 36037 ft 435 kts 288°
2026-05-07 01:21 49.06116 -93.17651 36042 ft 435 kts 287°
2026-05-07 01:22 49.07857 -93.26490 36047 ft 435 kts 287°
2026-05-07 01:22 49.09581 -93.35337 36043 ft 435 kts 287°
2026-05-07 01:23 49.11287 -93.44135 36044 ft 435 kts 287°
2026-05-07 01:23 49.13021 -93.53052 36041 ft 435 kts 287°
2026-05-07 01:24 49.14733 -93.61920 36047 ft 436 kts 287°
2026-05-07 01:24 49.16421 -93.70751 36050 ft 436 kts 287°
2026-05-07 01:25 49.18111 -93.79639 36049 ft 435 kts 287°
2026-05-07 01:25 49.19801 -93.88535 36055 ft 435 kts 287°
2026-05-07 01:26 49.21477 -93.97427 36054 ft 435 kts 287°
2026-05-07 01:26 49.23146 -94.06329 36054 ft 435 kts 287°
2026-05-07 01:27 49.24809 -94.15231 36054 ft 435 kts 287°
2026-05-07 01:27 49.26468 -94.24143 36057 ft 435 kts 287°
2026-05-07 01:28 49.28121 -94.33066 36044 ft 436 kts 287°
2026-05-07 01:28 49.29779 -94.41987 36045 ft 435 kts 287°
2026-05-07 01:29 49.31419 -94.50914 36054 ft 435 kts 287°
2026-05-07 01:29 49.33037 -94.59785 35691 ft 437 kts 287°
2026-05-07 01:29 49.33857 -94.64315 34861 ft 443 kts 286°
2026-05-07 01:30 49.34680 -94.68873 34122 ft 445 kts 286°
2026-05-07 01:30 49.35513 -94.73482 33150 ft 450 kts 286°
2026-05-07 01:30 49.36349 -94.78101 32321 ft 450 kts 286°
2026-05-07 01:30 49.37187 -94.82760 31807 ft 444 kts 286°
2026-05-07 01:31 49.37990 -94.87244 31242 ft 440 kts 286°
2026-05-07 01:31 49.38799 -94.91762 30673 ft 437 kts 286°
2026-05-07 01:31 49.39599 -94.96239 30116 ft 434 kts 286°
2026-05-07 01:31 49.40393 -95.00692 29508 ft 429 kts 286°
2026-05-07 01:32 49.41174 -95.05079 28988 ft 423 kts 286°
2026-05-07 01:32 49.41943 -95.09408 28455 ft 417 kts 286°
2026-05-07 01:32 49.42700 -95.13677 27943 ft 412 kts 286°
2026-05-07 01:32 49.43445 -95.17897 27422 ft 407 kts 286°
2026-05-07 01:33 49.44177 -95.22063 26921 ft 402 kts 286°
2026-05-07 01:33 49.44898 -95.26183 26424 ft 397 kts 286°
2026-05-07 01:33 49.45611 -95.30250 25947 ft 392 kts 286°
2026-05-07 01:33 49.46318 -95.34271 25468 ft 387 kts 286°
2026-05-07 01:34 49.47016 -95.38242 25008 ft 382 kts 286°
2026-05-07 01:34 49.47700 -95.42161 24563 ft 377 kts 286°
2026-05-07 01:34 49.48372 -95.46034 24130 ft 373 kts 286°
2026-05-07 01:34 49.49034 -95.49861 23705 ft 368 kts 286°
2026-05-07 01:35 49.49686 -95.53645 23246 ft 363 kts 286°
2026-05-07 01:35 49.50325 -95.57371 22838 ft 357 kts 286°
2026-05-07 01:35 49.50952 -95.61033 22443 ft 351 kts 286°
2026-05-07 01:35 49.51571 -95.64628 22052 ft 345 kts 286°
2026-05-07 01:36 49.52181 -95.68174 21663 ft 340 kts 286°
2026-05-07 01:36 49.52780 -95.71669 21278 ft 336 kts 287°
2026-05-07 01:36 49.53370 -95.75124 20885 ft 332 kts 287°
2026-05-07 01:36 49.53953 -95.78554 20509 ft 330 kts 287°
2026-05-07 01:37 49.54584 -95.81937 20070 ft 327 kts 292°
2026-05-07 01:37 49.55453 -95.85106 19660 ft 325 kts 295°
2026-05-07 01:37 49.56346 -95.88299 19238 ft 329 kts 295°
2026-05-07 01:37 49.57278 -95.91663 18798 ft 341 kts 295°
2026-05-07 01:38 49.58197 -95.94990 18364 ft 342 kts 295°
2026-05-07 01:38 49.59124 -95.98356 17866 ft 341 kts 295°
2026-05-07 01:38 49.60044 -96.01706 17374 ft 338 kts 295°
2026-05-07 01:38 49.60959 -96.05036 16883 ft 336 kts 295°
2026-05-07 01:39 49.61865 -96.08342 16389 ft 333 kts 295°
2026-05-07 01:39 49.62763 -96.11622 15928 ft 331 kts 295°
2026-05-07 01:39 49.63655 -96.14886 15463 ft 329 kts 295°
2026-05-07 01:39 49.64540 -96.18123 15003 ft 327 kts 295°
2026-05-07 01:40 49.65420 -96.21348 14550 ft 325 kts 295°
2026-05-07 01:40 49.66291 -96.24551 14107 ft 323 kts 295°
2026-05-07 01:40 49.67157 -96.27734 13640 ft 321 kts 295°
2026-05-07 01:40 49.68021 -96.30899 13130 ft 319 kts 295°
2026-05-07 01:41 49.68876 -96.34046 12636 ft 317 kts 295°
2026-05-07 01:41 49.69724 -96.37177 12154 ft 315 kts 295°
2026-05-07 01:41 49.70566 -96.40291 11684 ft 313 kts 295°
2026-05-07 01:41 49.71397 -96.43375 11320 ft 306 kts 295°
2026-05-07 01:42 49.72186 -96.46317 11091 ft 285 kts 295°
2026-05-07 01:42 49.72922 -96.49068 11039 ft 273 kts 295°
2026-05-07 01:42 49.73567 -96.51817 10917 ft 274 kts 288°
2026-05-07 01:42 49.73853 -96.54731 10398 ft 271 kts 274°
2026-05-07 01:43 49.73840 -96.57650 10326 ft 272 kts 273°
2026-05-07 01:43 49.73831 -96.60559 9973 ft 270 kts 273°
2026-05-07 01:43 49.73829 -96.63461 9505 ft 271 kts 273°
2026-05-07 01:43 49.73829 -96.66372 9005 ft 269 kts 273°
2026-05-07 01:44 49.73828 -96.69221 8506 ft 261 kts 273°
2026-05-07 01:44 49.73825 -96.71973 8033 ft 252 kts 273°
2026-05-07 01:44 49.73820 -96.74631 7557 ft 242 kts 273°
2026-05-07 01:44 49.73813 -96.77182 7089 ft 234 kts 273°
2026-05-07 01:45 49.73803 -96.79672 6610 ft 230 kts 272°
2026-05-07 01:45 49.73794 -96.82125 6144 ft 228 kts 272°
2026-05-07 01:45 49.73786 -96.84540 6052 ft 224 kts 272°
2026-05-07 01:45 49.73780 -96.86970 6033 ft 227 kts 272°
2026-05-07 01:46 49.73774 -96.88584 6027 ft 227 kts 272°
2026-05-07 01:46 49.73766 -96.91026 6022 ft 227 kts 272°
2026-05-07 01:46 49.73758 -96.93465 6023 ft 227 kts 272°
2026-05-07 01:46 49.73751 -96.95905 6023 ft 227 kts 272°
2026-05-07 01:47 49.73737 -96.98303 5940 ft 218 kts 272°
2026-05-07 01:47 49.73701 -97.00597 5691 ft 210 kts 271°
2026-05-07 01:47 49.73660 -97.02830 5503 ft 207 kts 271°
2026-05-07 01:47 49.73620 -97.05051 5325 ft 206 kts 271°
2026-05-07 01:48 49.73581 -97.07261 5110 ft 204 kts 271°
2026-05-07 01:48 49.73544 -97.09421 4433 ft 201 kts 271°
2026-05-07 01:48 49.73497 -97.11596 3571 ft 205 kts 267°
2026-05-07 01:48 49.72987 -97.13655 3093 ft 211 kts 235°
2026-05-07 01:49 49.71855 -97.15094 3013 ft 219 kts 206°
2026-05-07 01:49 49.70341 -97.15644 3020 ft 222 kts 191°
2026-05-07 01:49 49.68923 -97.16421 3004 ft 209 kts 215°
2026-05-07 01:49 49.67959 -97.17959 3015 ft 199 kts 242°
2026-05-07 01:50 49.67541 -97.19948 3018 ft 194 kts 267°
2026-05-07 01:50 49.67710 -97.21968 3019 ft 189 kts 291°
2026-05-07 01:50 49.68399 -97.23683 3018 ft 190 kts 316°
2026-05-07 01:50 49.69485 -97.24792 3018 ft 188 kts 339°
2026-05-07 01:51 49.70724 -97.25454 3032 ft 189 kts 341°
2026-05-07 01:51 49.71959 -97.26123 3019 ft 188 kts 341°
2026-05-07 01:51 49.73194 -97.26794 3015 ft 189 kts 341°
2026-05-07 01:51 49.74458 -97.27344 3018 ft 187 kts 351°
2026-05-07 01:52 49.75747 -97.27306 3018 ft 185 kts
2026-05-07 01:52 49.77018 -97.27058 3011 ft 181 kts
2026-05-07 01:52 49.78209 -97.26793 3014 ft 169 kts
2026-05-07 01:52 49.79358 -97.26531 2890 ft 165 kts
2026-05-07 01:53 49.80489 -97.26272 2690 ft 164 kts
2026-05-07 01:53 49.81616 -97.26012 2473 ft 163 kts
2026-05-07 01:53 49.82740 -97.25753 2251 ft 164 kts
2026-05-07 01:53 49.83851 -97.25497 2018 ft 153 kts
2026-05-07 01:54 49.84859 -97.25264 1807 ft 142 kts
2026-05-07 01:54 49.85828 -97.25040 1587 ft 140 kts
2026-05-07 01:54 49.86782 -97.24823 1381 ft 138 kts 10°
2026-05-07 01:54 49.87732 -97.24627 1152 ft 136 kts 11°
2026-05-07 01:55 49.88661 -97.24395 999 ft 134 kts 13°
2026-05-07 01:55 49.89579 -97.24181 873 ft 131 kts 11°
2026-05-07 01:55 49.90424 -97.23976 788 ft 108 kts
2026-05-07 01:55 49.90968 -97.23850 788 ft 46 kts
2026-05-07 01:56 49.91144 -97.23806 787 ft 23 kts
2026-05-07 01:56 49.91212 -97.23650 787 ft 20 kts 100°
2026-05-07 01:56 49.91147 -97.23558 787 ft 0 kts 155°
2026-05-07 01:57 49.91132 -97.23549 787 ft 9 kts 157°
2026-05-07 01:57 49.91024 -97.23470 786 ft 20 kts 154°
2026-05-07 01:57 49.90902 -97.23381 786 ft 19 kts 156°
2026-05-07 01:57 49.90782 -97.23298 786 ft 19 kts 155°
2026-05-07 01:58 49.90688 -97.23185 786 ft 17 kts 105°
2026-05-07 01:58 49.90702 -97.23004 786 ft 17 kts 79°
2026-05-07 01:58 49.90722 -97.22850 786 ft 10 kts 79°
2026-05-07 01:58 49.90731 -97.22774 786 ft 7 kts 79°
2026-05-07 01:59 49.90717 -97.22702 786 ft 9 kts 140°
2026-05-07 01:59 49.90696 -97.22690 786 ft 2 kts 163°
2026-05-07 01:59 49.90687 -97.22686 786 ft 1 kts 163°
2026-05-07 01:59 49.90682 -97.22684 786 ft 1 kts 163°
2026-05-07 02:00 49.90674 -97.22680 786 ft 2 kts 163°
2026-05-07 02:00 49.90673 -97.22680 786 ft 0 kts 163°